Location: Ciochowice
(50.4289°N, 18.5217°E)
Time: 12:21:21
(UTC+01:00)

ISS - Pass Details

Date: 02 February 2019
Orbit: 403 x 411 km, 51.6° (Epoch: 18 February)

Event Time Altitude Azimuth Distance (km) Brightness Sun altitude
Rises 18:04:59 0° 279° (W) 2,336 1.5 -13.7°
Reaches altitude 10° 18:07:04 10° 281° (W) 1,476 0.2 -14.0°
Maximum altitude 18:10:23 74° 8° (N) 432 -3.8 -14.5°
Enters shadow 18:11:44 32° 86° (E) 723 -3.1 -14.7°
